الصفحة الرئيسية
METAR-TAF:

مطار :

مدينة همدان, إيران

دائرة عرض: 34-52-05N, خط طول: 048-33-08E, ارتفاع: 1757 متر

مراقبة الطقس الحالي

تاريخ ووقت الإصدار 1ساعة و 11 دقيقة قبل الساعة 11:53UTC
ريح 8 عقدة من الشمال/الشمال الغربي
درجة الحرارة 33°درجة مئوية
الرطوبة 16%
ضغط 1013 hPa
الرؤية 10 كم أو أكثر
غيوم قليلة على ارتفاع 4000 قدم

METAR: OIHH 301153Z 33008KT 9999 FEW040 33/04 Q1013

زمن: 17:34 (13:04 UTC)


TAF: مفقودة

METAR-TAF

أرصاد الطقس والتوقعات من أكثر من 4000 مطار (تقارير الطقس للمطار METAR والتنبؤ بالطقس بالمطارTAF).

المحطات المتاحة هي النقط الصفراء والحمراء على الخريطة.

حرك المؤشر فوق النقطة لمعرفة اسم المحطة.

ثم انقر لمعرفة أرصاد وتوقعات الطقس.

لتغيير الخارطة: اضغط على الأزرار الخضراء مع رمز الصليب الأسود للتكبير. على الزر الأخضر مع شرطة للتصغير، أو على الأسهم الخضراء للخرائط المجاورة.


METAR-TAF: